Temp
60 59 55 55 56 55 54 55 57 54 54 56 56 59 56 55 55 55 54 57 55 54 55 55 55 58 56 54 54 57 54 56 50 51 52 53 53 54 56 56 59 56 56
61 58 55 55 55 55 54 55 55 54 54 59 58 56 60 56 59 55 57 56 57 57 58 54 54 60 55 57 59 55 52 52 52 49 51 52 53 54 54 54 58 61 57
62 56 55 55 54 56 55 55 56 58 59 56 56 56 56 58 56 57 56 59 58 59 55 54 54 54 52 52 52 52 52 55 52 51 50 51 52 54 54 55 55 55 60
61 58 56 55 54 57 58 56 56 61 60 59 55 59 59 55 58 57 58 58 58 56 56 55 55 54 52 52 53 52 53 52 51 50 50 50 52 53 53 53 54 57 58
60 59 60 58 56 59 60 60 59 57 60 60 59 57 54 55 56 51 56 56 54 55 56 57 55 58 61 58 53 50 51 51 50 50 49 52 50 50 51 51 54 51 52
60 60 61 61 60 59 60 60 58 58 56 60 59 55 52 57 51 52 54 53 56 58 58 56 56 59 59 59 59 58 54 50 50 50 49 49 50 51 51 50 50 48 47
60 61 62 61 61 60 57 58 56 55 56 55 56 57 52 50 50 51 53 56 54 54 57 59 61 62 57 56 59 57 56 56 55 52 50 51 51 52 51 49 48 49 49
60 61 60 62 61 61 57 55 54 55 54 53 55 55 52 53 52 50 51 56 56 57 59 57 54 54 52 54 54 55 56 55 53 55 52 53 52 52 51 51 49 49 50
60 61 62 59 58 59 57 55 54 53 53 58 58 59 58 53 51 51 51 51 57 57 61 61 57 53 49 49 54 53 53 54 58 56 55 54 53 52 51 49 49 48 46
60 61 62 61 61 58 59 56 54 54 54 55 56 56 59 54 51 51 51 52 55 57 54 55 54 54 49 49 51 50 49 49 50 52 53 53 51 51 52 50 50 47 45
59 62 61 61 57 56 57 58 56 56 55 53 54 54 54 55 54 49 50 52 51 53 58 58 57 50 50 50 49 49 50 49 51 49 50 50 52 50 53 51 52 51 47
58 61 60 60 59 64 59 58 57 57 54 53 52 53 54 54 53 49 49 50 52 51 54 53 53 49 48 47 49 50 49 48 48 49 49 50 50 51 53 53 53 52 52
59 56 59 59 59 61 58 58 53 54 55 57 57 52 52 55 53 50 48 48 48 49 50 51 51 49 46 46 46 47 47 48 48 48 48 49 51 53 52 50 52 53 52
58 56 55 58 58 59 57 55 54 52 53 54 57 57 55 51 52 50 51 49 49 49 52 49 51 49 49 50 51 52 51 49 49 49 50 50 51 52 52 50 52 50 49
57 55 54 57 56 58 57 57 55 57 57 54 53 56 52 49 52 50 50 51 49 48 46 49 50 50 50 51 52 52 52 51 50 49 49 50 51 51 52 51 51 49 49
55 54 53 53 55 55 54 56 52 50 50 48 47 51 53 51 47 46 46 45 43 44 46 46 46 48 49 51 54 52 52 52 50 51 50 49 50 51 51 51 51 49 47
52 54 53 53 55 54 52 54 54 55 52 48 47 46 47 49 45 45 45 44 41 43 45 45 46 47 50 51 52 53 52 51 51 51 50 50 51 51 51 51 51 50 49
52 50 53 53 54 54 55 55 54 52 53 55 53 46 44 43 45 44 44 43 46 42 44 47 48 50 51 53 52 52 50 50 50 50 50 49 50 50 51 51 50 48 48
52 52 51 52 54 54 55 54 55 56 54 57 57 51 45 42 42 41 41 46 47 48 49 49 52 52 52 52 52 51 50 51 50 49 49 48 49 49 49 50 49 46 46
52 49 48 51 52 53 54 54 53 55 56 53 53 54 49 49 47 46 44 45 47 50 53 52 55 54 53 54 52 51 50 50 50 48 49 48 49 50 50 49 49 48 48
51 51 47 50 52 52 52 53 54 55 56 53 55 57 45 57 58 55 51 50 52 53 54 54 54 55 55 54 52 52 51 50 49 49 48 49 49 49 50 50 49 50 50
49 50 50 50 51 52 53 53 53 53 56 53 57 56 40 48 56 54 57 58 56 57 58 57 55 57 58 56 53 52 51 51 50 50 49 49 49 49 49 49 49 49 49
51 52 52 52 51 49 52 53 53 52 53 53 54 58 54 57 59 59 58 57 60 60 61 59 57 56 56 56 54 54 53 52 51 50 49 49 49 48 48 48 49 48 48
51 52 51 51 50 51 50 50 52 49 52 54 54 55 54 58 59 57 59 57 58 62 61 61 58 59 58 55 55 55 54 53 52 53 52 50 48 47 47 47 47 49 49
49 51 50 48 48 49 48 48 48 49 52 53 55 56 56 56 55 59 59 59 59 59 61 62 61 61 60 58 58 58 49 39 50 44 49 49 49 48 47 47 48 49 50
50 49 48 47 47 46 47 47 46 47 49 51 52 52 54 56 56 56 56 58 60 57 57 59 59 63 64 61 59 48 40 41 45 41 48 48 47 46 46 48 49 48 49
MSLP
1023.44 1023.27 1023.31 1023.06 1022.94 1022.85 1022.69 1022.49 1022.31 1022.10 1021.90 1021.64 1021.34 1021.04 1020.91 1020.60 1020.20 1019.97 1019.64 1019.37 1019.23 1019.04 1018.88 1018.84 1018.50 1018.22 1018.20 1018.03 1018.24 1018.49 1018.72 1018.87 1019.68 1020.18 1020.05 1020.23 1020.59 1020.70 1020.59 1020.71 1020.79 1020.95 1021.14
1023.19 1023.13 1023.18 1022.95 1022.93 1022.77 1022.61 1022.42 1022.12 1022.10 1021.77 1021.35 1021.17 1021.06 1020.95 1020.69 1020.44 1020.18 1019.96 1019.67 1019.45 1019.32 1019.11 1019.03 1019.00 1018.67 1018.75 1018.57 1018.30 1018.71 1018.96 1018.99 1019.52 1020.28 1020.38 1020.49 1020.60 1020.63 1020.68 1020.90 1020.79 1020.83 1021.05
1022.95 1022.96 1023.01 1022.88 1022.79 1022.50 1022.39 1022.26 1022.07 1021.85 1021.68 1021.35 1021.29 1021.19 1021.09 1021.01 1020.74 1020.42 1020.12 1019.99 1019.73 1019.60 1019.49 1019.41 1019.35 1019.18 1019.28 1019.14 1019.16 1019.36 1019.30 1019.35 1019.61 1020.04 1020.51 1020.42 1020.38 1020.42 1020.59 1020.54 1020.54 1020.49 1020.27
1022.84 1022.81 1022.77 1022.61 1022.54 1022.23 1022.09 1022.10 1022.01 1021.64 1021.66 1021.55 1021.39 1021.23 1021.16 1021.15 1020.97 1020.81 1020.47 1020.00 1019.99 1019.95 1019.85 1019.79 1019.79 1019.76 1019.79 1019.71 1019.68 1019.68 1019.61 1019.84 1019.91 1020.21 1020.46 1020.51 1020.53 1020.44 1020.49 1020.66 1020.60 1020.31 1019.99
1022.73 1022.62 1022.43 1022.31 1022.18 1022.02 1021.86 1021.85 1021.82 1021.74 1021.62 1021.51 1021.44 1021.50 1021.36 1021.31 1021.31 1021.12 1020.86 1020.62 1020.40 1020.29 1020.19 1020.12 1020.04 1019.99 1019.93 1019.92 1019.97 1020.10 1020.04 1020.19 1020.25 1020.51 1020.74 1020.68 1020.67 1020.69 1020.79 1020.72 1020.70 1020.52 1019.98
1022.52 1022.44 1022.08 1021.89 1021.91 1021.83 1021.66 1021.63 1021.63 1021.59 1021.49 1021.41 1021.39 1021.59 1021.45 1021.57 1021.52 1021.28 1021.03 1020.78 1020.72 1020.36 1020.18 1020.09 1020.02 1020.06 1019.99 1019.97 1019.95 1019.99 1019.98 1020.28 1020.41 1020.56 1020.76 1020.91 1020.77 1020.67 1020.66 1020.71 1020.66 1020.73 1020.51
1022.29 1022.06 1021.83 1021.68 1021.70 1021.43 1021.44 1021.41 1021.56 1021.45 1021.37 1021.31 1021.32 1021.37 1021.49 1021.55 1021.38 1021.20 1021.07 1020.83 1020.76 1020.51 1020.30 1020.04 1019.95 1020.01 1019.97 1019.93 1019.86 1019.75 1019.66 1019.83 1019.96 1020.25 1020.48 1020.42 1020.41 1020.35 1020.36 1020.45 1020.43 1020.44 1020.30
1022.06 1021.82 1021.68 1021.49 1021.26 1021.15 1021.14 1021.18 1021.25 1021.22 1021.26 1021.28 1021.20 1021.19 1021.31 1021.38 1021.20 1021.15 1021.01 1020.80 1020.58 1020.31 1020.26 1020.08 1020.07 1020.15 1020.08 1019.96 1019.89 1019.84 1019.66 1019.68 1019.84 1019.98 1019.95 1019.84 1019.70 1019.77 1019.90 1020.00 1020.06 1020.09 1019.61
1021.78 1021.54 1021.27 1021.16 1021.19 1021.14 1021.04 1020.99 1020.96 1020.98 1021.06 1020.88 1020.77 1020.84 1020.94 1020.99 1020.98 1020.95 1020.88 1020.79 1020.51 1020.11 1019.77 1019.77 1019.86 1020.16 1020.09 1020.05 1020.03 1020.11 1020.07 1019.69 1019.29 1019.30 1019.39 1019.34 1019.30 1019.42 1019.63 1019.92 1020.14 1020.19 1020.36
1021.41 1021.14 1020.93 1020.75 1020.83 1020.84 1020.71 1020.82 1020.70 1020.68 1020.68 1020.49 1020.39 1020.27 1020.31 1020.47 1020.55 1020.63 1020.68 1020.69 1020.67 1020.40 1020.12 1020.01 1019.93 1020.03 1020.09 1020.08 1020.08 1020.17 1020.14 1019.96 1019.63 1019.40 1019.29 1019.16 1019.12 1019.33 1019.50 1019.78 1019.83 1020.21 1020.34
1020.96 1020.74 1020.73 1020.67 1020.68 1020.50 1020.46 1020.26 1020.29 1020.28 1020.21 1020.24 1020.23 1020.11 1020.02 1020.02 1020.04 1020.26 1020.39 1020.43 1020.57 1020.58 1020.20 1020.13 1020.11 1020.04 1020.09 1020.09 1019.98 1019.99 1020.03 1019.76 1019.62 1019.59 1019.31 1018.84 1018.67 1019.01 1019.14 1019.38 1019.21 1019.35 1019.65
1020.55 1020.45 1020.36 1020.15 1020.19 1019.96 1020.14 1020.04 1019.96 1019.89 1019.96 1019.89 1019.86 1019.72 1019.54 1019.51 1019.67 1019.84 1019.98 1020.02 1020.15 1020.34 1020.31 1020.04 1020.03 1019.97 1019.98 1020.01 1019.94 1019.76 1019.75 1019.69 1019.63 1019.54 1019.47 1019.19 1018.92 1018.68 1018.63 1018.57 1018.56 1018.63 1018.60
1020.15 1020.12 1020.00 1019.93 1019.85 1019.69 1019.79 1019.81 1019.81 1019.67 1019.68 1019.48 1019.46 1019.24 1018.91 1018.87 1019.09 1019.26 1019.49 1019.67 1019.84 1020.10 1020.12 1020.07 1019.96 1019.81 1019.69 1019.64 1019.56 1019.42 1019.41 1019.56 1019.65 1019.69 1019.40 1019.25 1018.79 1018.44 1018.20 1018.44 1018.39 1018.26 1018.20
1019.76 1019.70 1019.65 1019.58 1019.41 1019.35 1019.33 1019.32 1019.37 1019.23 1019.16 1019.01 1018.90 1018.84 1018.51 1018.57 1018.60 1018.78 1019.15 1019.37 1019.51 1019.63 1019.59 1019.57 1019.48 1019.25 1019.17 1019.10 1019.10 1018.97 1018.93 1019.06 1019.35 1019.39 1018.97 1018.67 1018.37 1018.14 1018.11 1017.94 1018.10 1018.11 1018.30
1019.29 1019.32 1019.35 1019.18 1019.07 1018.96 1018.76 1018.79 1018.85 1018.52 1018.54 1018.45 1018.39 1018.43 1018.39 1018.56 1018.42 1018.34 1018.79 1019.20 1019.28 1019.33 1019.29 1019.21 1019.19 1019.08 1019.01 1018.81 1018.50 1018.28 1018.22 1018.37 1018.81 1018.80 1018.73 1018.61 1018.45 1018.33 1018.17 1017.88 1017.95 1018.17 1018.30
1019.58 1019.17 1019.02 1018.88 1018.65 1018.54 1018.40 1018.24 1018.03 1017.90 1017.66 1017.58 1017.50 1017.83 1017.80 1017.75 1017.95 1018.21 1018.45 1018.67 1018.82 1018.96 1019.23 1019.24 1019.12 1018.91 1018.79 1018.41 1018.12 1017.64 1017.60 1017.77 1018.12 1018.23 1018.19 1018.26 1018.42 1018.33 1018.11 1017.84 1017.70 1017.94 1018.04
1019.97 1019.82 1019.15 1018.68 1018.46 1018.23 1018.16 1018.18 1018.09 1017.37 1017.19 1016.91 1017.02 1017.07 1017.34 1017.39 1017.67 1018.04 1018.36 1018.59 1018.75 1018.90 1019.04 1018.84 1018.72 1018.44 1018.15 1017.85 1017.66 1017.31 1017.41 1017.48 1017.52 1017.78 1017.89 1018.06 1018.09 1017.95 1017.95 1017.88 1017.78 1017.86 1017.96
1019.79 1019.69 1019.22 1019.09 1018.60 1018.17 1017.79 1017.83 1017.57 1017.55 1017.32 1016.89 1016.54 1016.26 1016.40 1016.91 1017.09 1017.54 1018.04 1018.42 1018.83 1018.87 1018.71 1018.28 1018.06 1017.74 1017.52 1017.28 1017.16 1017.01 1017.18 1017.28 1017.46 1017.58 1017.66 1017.74 1017.73 1017.90 1017.76 1017.72 1017.70 1017.82 1017.72
1019.84 1019.58 1019.18 1018.90 1018.48 1018.10 1017.75 1017.31 1017.25 1017.03 1016.59 1016.71 1016.28 1016.08 1016.04 1016.58 1016.92 1017.22 1017.65 1017.99 1018.18 1018.11 1017.85 1017.48 1017.15 1016.98 1016.80 1016.62 1016.34 1016.51 1016.73 1016.98 1017.08 1017.26 1017.35 1017.41 1017.45 1017.63 1017.57 1017.53 1017.53 1017.48 1017.46
1019.57 1019.28 1019.12 1018.53 1018.15 1017.90 1017.71 1017.28 1016.92 1016.89 1016.40 1016.34 1015.88 1015.94 1016.29 1016.70 1017.15 1016.97 1017.00 1017.11 1017.27 1017.03 1016.79 1016.66 1016.17 1015.98 1015.95 1015.67 1015.85 1016.09 1016.34 1016.53 1016.76 1016.95 1017.05 1017.12 1017.14 1017.10 1017.24 1017.24 1017.27 1017.31 1017.19
1019.54 1019.00 1018.65 1018.38 1018.03 1017.74 1017.69 1017.12 1016.51 1016.45 1015.93 1015.51 1015.08 1015.04 1015.28 1015.28 1015.41 1015.46 1015.72 1015.99 1015.94 1015.86 1015.65 1015.54 1015.26 1015.12 1014.77 1014.92 1015.26 1015.50 1015.79 1016.03 1016.20 1016.43 1016.62 1016.79 1016.73 1016.92 1016.70 1016.65 1016.80 1016.82 1016.79
1019.35 1018.78 1018.24 1017.92 1017.55 1017.28 1017.03 1016.63 1016.33 1016.06 1015.67 1015.20 1014.69 1014.35 1014.40 1015.01 1014.64 1014.58 1014.48 1014.36 1014.29 1014.28 1014.24 1014.39 1014.44 1014.10 1014.10 1014.21 1014.50 1014.98 1015.31 1015.60 1015.71 1015.86 1016.10 1016.28 1016.37 1016.49 1016.52 1016.52 1016.60 1016.57 1016.56
1018.95 1018.25 1017.77 1017.43 1017.14 1016.93 1016.63 1016.49 1016.00 1015.68 1015.45 1015.22 1015.01 1014.80 1014.55 1014.32 1013.75 1013.74 1013.49 1013.28 1013.46 1013.24 1013.06 1013.26 1013.40 1013.32 1013.42 1013.62 1013.83 1014.10 1014.58 1014.84 1015.08 1015.40 1015.70 1015.96 1016.16 1016.35 1016.46 1016.56 1016.47 1016.37 1016.35
1018.70 1018.09 1017.72 1017.38 1017.20 1017.03 1016.78 1016.55 1016.13 1015.45 1015.10 1014.87 1014.33 1014.26 1014.06 1013.89 1013.59 1013.04 1012.84 1012.65 1012.57 1012.44 1012.27 1012.17 1012.54 1012.47 1012.68 1012.98 1013.29 1013.42 1013.62 1014.00 1014.28 1014.61 1015.00 1015.54 1015.91 1016.07 1016.19 1016.27 1016.25 1016.10 1016.11
1018.59 1018.05 1018.06 1017.98 1017.88 1017.39 1017.12 1016.86 1016.44 1015.71 1014.96 1014.52 1014.10 1013.81 1013.57 1013.52 1013.34 1012.83 1012.06 1011.92 1012.04 1012.05 1012.12 1011.57 1011.66 1011.93 1011.93 1012.17 1012.46 1012.74 1013.08 1013.52 1013.79 1014.16 1014.58 1015.07 1015.56 1015.75 1015.89 1015.96 1015.91 1015.83 1015.80
1018.68 1018.59 1018.63 1018.40 1018.11 1017.77 1017.30 1016.87 1016.19 1015.61 1014.89 1014.09 1013.57 1013.32 1013.14 1012.66 1012.44 1012.97 1012.56 1012.19 1011.88 1011.86 1011.73 1011.42 1011.39 1011.27 1011.52 1011.72 1011.57 1012.12 1012.55 1012.85 1013.31 1013.54 1014.08 1014.74 1015.16 1015.37 1015.50 1015.57 1015.55 1015.61 1015.53
Wind_Speed
3 3 4 5 5 4 4 4 3 3 5 6 5 5 5 6 6 5 4 5 5 4 3 5 4 4 3 2 1 2 3 2 5 2 2 2 3 4 3 3 6 5 5
3 4 2 5 3 3 3 3 2 2 4 5 4 5 4 5 6 7 6 5 6 6 5 7 6 6 6 5 4 4 2 3 5 5 2 1 3 4 4 4 4 4 6
3 4 3 4 4 3 2 1 1 2 2 3 4 6 5 4 6 6 7 5 4 5 6 7 6 7 7 5 5 5 4 3 3 3 2 0 1 2 2 3 3 5 4
4 4 3 3 4 3 2 1 2 3 3 3 2 5 4 4 5 6 8 7 2 5 5 6 5 5 5 5 6 5 5 5 3 3 1 2 1 2 2 2 2 2 4
4 4 5 3 4 0 2 2 3 3 4 5 4 4 4 5 4 6 6 6 5 4 2 3 3 4 6 5 3 3 4 3 3 3 2 2 2 2 1 2 2 2 3
4 6 5 6 4 4 3 1 0 2 3 2 5 2 4 3 3 4 6 5 6 3 1 2 1 1 1 1 2 4 6 3 2 2 1 2 1 2 1 1 1 1 2
5 5 5 1 3 2 5 1 3 1 2 4 1 5 4 2 1 3 5 4 5 5 4 2 2 3 5 4 5 5 4 7 5 4 4 4 3 4 2 1 1 1 4
6 5 4 5 3 2 3 1 2 2 2 3 4 4 5 4 5 2 5 4 5 5 4 2 2 2 3 4 4 6 5 2 5 4 5 5 4 4 4 4 3 3 3
6 5 5 4 4 4 1 3 3 1 2 4 5 4 6 5 8 4 2 4 5 6 5 4 6 3 1 2 4 4 3 4 1 8 6 7 4 4 3 2 2 4 3
6 6 6 6 5 4 4 3 3 2 4 5 6 6 7 6 9 8 2 1 4 4 3 4 6 6 3 2 2 2 3 3 3 6 5 4 6 5 5 3 2 2 1
6 5 5 6 6 6 5 3 3 4 4 5 5 5 6 8 7 9 8 2 2 2 1 1 2 4 4 4 3 2 4 2 5 4 6 5 5 4 5 5 5 4 3
6 5 5 6 4 4 4 4 4 5 5 6 6 6 5 7 9 10 10 9 5 2 3 2 4 8 8 8 6 7 8 3 3 4 3 4 2 2 5 6 7 6 5
5 7 5 5 4 6 5 5 3 4 4 5 4 6 5 5 5 13 12 9 7 3 2 4 8 11 9 6 10 11 6 2 3 2 2 2 2 3 3 1 5 5 5
7 6 6 5 5 5 4 4 3 4 4 4 4 4 2 3 5 4 5 4 6 5 5 4 6 9 8 7 5 5 4 4 4 4 3 2 3 3 3 2 3 1 2
6 5 5 5 6 6 5 5 4 6 5 5 5 3 1 3 5 8 8 5 4 3 1 2 3 3 4 4 5 6 5 4 4 2 2 2 3 3 2 0 2 1 1
8 5 5 4 4 4 4 5 8 13 13 12 10 4 4 6 10 9 10 10 9 5 1 2 3 4 5 5 7 5 4 4 4 4 1 1 2 2 2 2 1 1 2
10 10 6 5 4 4 4 5 6 7 9 11 10 10 12 10 11 10 9 6 6 4 2 3 4 5 6 6 4 4 3 4 3 2 1 1 2 2 0 2 2 1 1
5 8 3 6 6 6 4 6 4 5 4 4 9 11 11 10 13 10 9 4 2 2 4 5 5 5 5 6 4 3 4 4 3 3 2 1 2 2 1 2 3 2 3
4 4 4 3 6 9 7 3 4 5 4 7 4 3 4 7 7 8 8 4 4 5 5 5 6 6 6 5 4 5 5 4 3 2 2 2 2 1 1 3 3 4 4
5 6 6 3 4 6 8 5 4 9 5 6 4 3 3 5 3 5 6 5 5 7 7 6 7 6 6 5 5 5 5 4 4 3 4 3 4 4 3 4 2 3 2
5 5 6 4 3 4 6 5 5 6 6 5 4 2 9 6 8 8 6 7 8 8 8 7 5 6 4 4 5 5 5 5 4 4 4 4 3 2 4 4 3 3 0
6 6 6 5 4 4 6 5 5 7 5 5 7 2 7 3 4 5 7 9 9 10 8 7 5 5 5 4 5 5 5 5 4 4 3 2 1 2 2 1 0 0 1
9 8 6 4 4 4 5 6 5 4 5 6 5 5 4 6 7 8 6 3 6 9 9 8 7 5 5 4 5 6 6 5 5 6 5 3 1 1 0 1 2 1 1
8 9 6 5 5 5 4 6 8 7 5 6 5 6 5 7 7 5 5 4 4 4 5 5 6 8 7 6 6 6 5 6 6 6 8 5 2 0 1 1 1 2 3
5 8 6 6 7 8 8 8 8 9 9 7 6 5 8 4 5 8 6 4 4 3 3 3 3 5 9 12 10 9 7 9 8 8 5 5 4 4 3 3 3 3 4
5 8 6 7 8 8 8 9 10 10 10 8 7 7 7 6 1 4 4 4 5 6 5 3 3 2 6 8 11 11 11 13 10 9 7 5 5 3 3 4 7 4 5
Wind_Direction
349 26 14 353 351 347 337 348 69 354 345 329 321 321 355 344 337 7 12 360 18 14 16 38 9 15 48 140 176 80 65 84 111 17 95 134 122 166 209 177 196 189 212
341 0 18 4 335 344 324 17 52 2 331 342 9 357 9 22 14 12 8 29 27 40 27 45 37 48 35 26 57 90 105 138 118 133 169 158 154 184 187 176 212 197 215
355 18 10 2 296 286 147 148 223 214 346 332 14 355 350 2 18 8 359 342 11 51 53 57 46 46 26 31 53 64 54 65 110 132 160 185 170 173 220 257 224 241 225
323 327 291 303 287 258 142 163 285 274 306 349 324 308 360 44 37 13 350 342 13 49 59 73 72 64 53 49 49 41 50 57 55 88 72 189 152 240 135 214 302 262 256
295 307 272 294 291 40 289 286 325 341 268 277 287 30 79 60 29 6 353 360 45 90 88 99 106 118 87 72 96 53 53 50 62 85 41 67 42 52 133 249 191 268 295
281 291 281 253 272 272 285 1 231 336 350 325 254 151 86 66 12 4 4 351 359 9 118 164 201 2 305 158 122 136 151 125 94 113 113 111 190 189 221 199 211 49 319
286 302 326 13 297 351 260 310 197 275 317 312 331 147 140 170 255 351 355 336 341 323 298 134 134 102 50 30 12 2 279 193 167 161 163 196 178 200 183 267 242 195 227
273 298 279 248 297 318 50 72 235 197 229 264 288 183 157 207 219 273 338 328 325 307 279 217 173 96 21 10 9 12 22 135 198 208 210 228 205 211 185 183 214 273 304
274 277 273 232 281 294 216 293 279 223 237 242 240 237 193 213 219 242 12 352 321 312 285 249 160 160 243 357 48 49 39 360 228 233 238 240 220 221 179 83 3 56 350
268 264 263 226 245 294 241 249 250 235 261 258 250 248 209 206 212 211 211 47 350 359 21 61 114 148 169 47 81 63 4 290 345 333 324 303 256 233 227 213 168 116 175
253 269 240 258 245 257 265 215 236 243 271 281 270 271 234 223 227 208 204 191 188 325 323 160 200 187 220 243 198 216 228 275 313 320 297 277 257 180 209 213 212 160 177
256 258 261 281 241 261 229 269 272 249 249 260 267 260 239 238 211 218 222 211 178 170 266 237 232 224 236 257 258 251 266 309 300 315 338 340 355 194 204 208 206 217 214
250 246 247 265 251 265 249 277 282 270 253 267 248 252 242 223 213 206 210 230 228 204 247 256 273 244 243 265 257 263 273 269 292 292 305 284 259 229 226 197 235 237 260
242 246 242 246 257 256 249 255 271 258 272 288 287 301 235 231 202 188 209 234 260 229 229 282 261 236 225 243 266 259 242 215 220 243 230 259 301 345 302 193 188 240 207
239 243 248 240 246 252 237 228 234 259 206 232 245 223 138 163 225 176 182 190 174 186 281 332 333 317 299 270 257 234 230 224 215 228 210 258 314 322 312 230 166 239 202
327 267 255 251 255 252 244 278 245 243 248 240 249 224 224 233 175 172 160 150 155 170 131 231 271 270 266 272 277 240 225 204 183 184 186 200 296 270 280 291 316 260 241
5 340 318 286 263 259 253 239 245 286 267 270 260 232 216 192 181 184 184 158 145 122 219 241 253 256 265 265 269 198 150 164 144 154 168 231 284 279 204 301 309 355 160
346 292 341 344 329 302 268 282 241 251 254 278 272 237 226 205 184 172 159 124 214 255 239 242 246 251 260 271 239 151 135 134 114 119 100 311 331 260 294 307 320 219 198
274 285 318 305 330 326 297 277 268 276 293 285 282 344 214 193 165 151 158 201 214 237 242 240 237 239 246 241 168 143 145 152 162 170 246 252 271 231 285 290 309 240 195
312 293 279 286 331 332 311 285 287 263 268 242 255 282 133 129 199 211 207 196 215 242 242 245 262 239 217 186 155 164 168 168 188 208 231 236 254 230 249 263 271 211 216
299 288 267 279 267 291 281 307 300 305 259 247 250 210 223 198 217 215 200 207 219 231 242 232 236 225 196 207 186 178 179 196 201 212 211 222 222 265 239 234 222 236 240
299 300 275 253 261 269 282 277 309 278 305 281 286 259 264 249 251 216 218 224 221 223 224 224 222 200 204 211 193 173 167 179 191 181 163 144 98 13 342 331 254 178 73
309 309 296 272 259 314 321 299 277 286 297 306 283 274 232 243 247 247 253 226 218 230 221 210 204 198 204 174 172 159 163 177 164 150 143 134 72 51 226 248 262 273 326
309 310 327 342 334 343 337 339 330 299 268 273 265 270 279 289 270 257 253 249 264 267 239 182 204 194 198 177 180 178 173 165 163 158 149 141 166 176 27 318 287 296 279
341 328 31 22 358 359 334 326 317 311 306 278 271 261 273 279 281 295 288 269 270 235 258 142 183 242 189 176 186 182 184 162 157 148 137 145 187 229 239 241 261 280 275
20 48 19 2 353 341 332 321 315 308 291 276 253 243 235 250 151 250 302 280 267 266 237 205 196 161 236 219 177 166 166 160 162 155 151 162 178 206 233 253 272 261 258